Daviess Cnty AP, Washington,, IN

10:58 AM EST on December 06, 2019 (GMT -0500)
Daviess County

Weather History for KDCY - October, 2019

Change the Weather History Date:

Sunday, October 20, 2019

  Actual Average (WUND) Record (WUND)
Temperature  
Mean Temperature 60 °F -  
Max Temperature 73 °F - - (-1)
Min Temperature 46 °F - - (-1)
Degree Days  
Heating Degree Days 6    
Growing Degree Days 10 (Base 50)    
Moisture  
Dew Point 50 °F    
Average Humidity 72    
Maximum Humidity 100    
Minimum Humidity 39    
Precipitation  
Precipitation 0.00 in - - ()
Sea Level Pressure  
Sea Level Pressure 29.86 in    
Wind  
Wind Speed 4 mph (SSW)    
Max Wind Speed 9 mph    
Max Gust Speed -    
Visibility 10 miles    
Events      
Averages and records for this station are not official NWS values.
T = Trace of Precipitation, MM = Missing Value Source: NWS Daily Summary

Daily Weather History Graph

Daily Weather History Graph

Search for Another Location

Airport or City:

Astronomy

Oct. 20, 2019 Rise Set
Actual Time 8:02 AM EDT 7:03 PM EDT
Civil Twilight 7:35 AM EDT 7:30 PM EDT
Nautical Twilight 7:04 AM EDT 8:01 PM EDT
Astronomical Twilight 6:33 AM EDT 8:32 PM EDT
Moon No Moon Rise 2:27 PM EDT (10/20)
Length of Visible Light 11h 54m
Length of Day
11h 00m
Waning Gibbous, 59% of the Moon is Illuminated
Oct 20
Waning Gibbous
Oct 21
Last Quarter
Oct 27
New
Nov 4
First Quarter
Nov 12
Full

Hourly Weather History & Observations

Time (EDT) Temp. Dew Point Humidity Pressure Visibility Wind Dir Wind Speed Gust Speed Precip Events Conditions
12:10 AM 61.5 °F 53.6 °F 75% 29.80 in 10.0 mi SW 9.2 mph - N/A   Mostly Cloudy
12:35 AM 60.3 °F 53.6 °F 79% 29.80 in 10.0 mi SSW 8.1 mph - N/A   Scattered Clouds
12:55 AM 59.2 °F 53.6 °F 82% 29.80 in 10.0 mi SSW 6.9 mph - N/A   Scattered Clouds
1:10 AM 58.5 °F 53.1 °F 82% 29.79 in 10.0 mi SSW 8.1 mph - N/A   Scattered Clouds
1:30 AM 58.3 °F 53.6 °F 84% 29.79 in 10.0 mi SSW 6.9 mph - N/A   Clear
1:55 AM 59.0 °F 53.8 °F 83% 29.79 in 10.0 mi SSW 6.9 mph - N/A   Clear
2:15 AM 57.7 °F 53.8 °F 87% 29.79 in 10.0 mi SSW 6.9 mph - N/A   Clear
2:30 AM 58.3 °F 54.3 °F 87% 29.79 in 10.0 mi SW 8.1 mph - N/A   Clear
2:55 AM 57.4 °F 54.5 °F 90% 29.79 in 10.0 mi SW 5.8 mph - N/A   Scattered Clouds
3:15 AM 57.6 °F 54.5 °F 90% 29.80 in 10.0 mi WSW 6.9 mph - N/A   Scattered Clouds
3:35 AM 56.7 °F 55.2 °F 95% 29.80 in 10.0 mi WSW 6.9 mph - N/A   Clear
3:55 AM 56.7 °F 55.2 °F 95% 29.80 in 10.0 mi WSW 6.9 mph - N/A   Clear
4:15 AM 56.5 °F 56.1 °F 99% 29.81 in 10.0 mi WSW 6.9 mph - N/A   Mostly Cloudy
4:35 AM 55.9 °F 55.2 °F 97% 29.81 in 10.0 mi WSW 6.9 mph - N/A   Mostly Cloudy
4:55 AM 55.2 °F 54.5 °F 97% 29.81 in 10.0 mi West 5.8 mph - N/A   Clear
5:15 AM 54.1 °F 54.0 °F 99% 29.82 in 10.0 mi WSW 4.6 mph - N/A   Scattered Clouds
5:35 AM 53.1 °F 52.9 °F 99% 29.82 in 10.0 mi Calm Calm - N/A   Overcast
5:55 AM 51.3 °F 51.1 °F 99% 29.83 in 10.0 mi Calm Calm - N/A   Overcast
6:15 AM 54.0 °F 52.7 °F 95% 29.83 in 10.0 mi Calm Calm - N/A   Overcast
6:35 AM 52.9 °F 52.3 °F 98% 29.84 in 10.0 mi Calm Calm - N/A   Overcast
6:55 AM 50.7 °F 50.5 °F 99% 29.85 in 10.0 mi Calm Calm - N/A   Overcast
7:15 AM 50.5 °F 50.4 °F 99% 29.85 in 3.0 mi Calm Calm - N/A   Scattered Clouds
7:35 AM 49.8 °F 49.5 °F 99% 29.85 in 7.0 mi Calm Calm - N/A   Clear
7:55 AM 48.9 °F 48.9 °F 100% 29.86 in 10.0 mi Calm Calm - N/A   Clear
8:15 AM 48.0 °F 47.7 °F 99% 29.86 in 10.0 mi Calm Calm - N/A   Clear
8:35 AM 46.6 °F 46.4 °F 99% 29.87 in 5.0 mi Calm Calm - N/A   Clear
8:55 AM 49.3 °F 49.1 °F 99% 29.88 in 10.0 mi Calm Calm - N/A   Clear
9:15 AM 52.7 °F 52.5 °F 99% 29.89 in 10.0 mi Calm Calm - N/A   Clear
9:35 AM 56.1 °F 48.9 °F 77% 29.89 in 10.0 mi NW 3.5 mph - N/A   Clear
9:55 AM 57.2 °F 48.9 °F 74% 29.90 in 10.0 mi NW 3.5 mph - N/A   Clear
10:15 AM 58.3 °F 49.3 °F 72% 29.90 in 10.0 mi WNW 3.5 mph - N/A   Clear
10:35 AM 59.0 °F 49.3 °F 70% 29.91 in 10.0 mi Calm Calm - N/A   Clear
10:55 AM 61.5 °F 49.3 °F 64% 29.90 in 10.0 mi Calm Calm - N/A   Clear
11:15 AM 62.6 °F 47.8 °F 58% 29.91 in 10.0 mi Calm Calm - N/A   Clear
11:35 AM 63.9 °F 47.3 °F 55% 29.91 in 10.0 mi Calm Calm - N/A   Clear
11:55 AM 64.8 °F 47.1 °F 53% 29.91 in 10.0 mi Calm Calm - N/A   Clear
12:15 PM 66.2 °F 47.7 °F 51% 29.91 in 10.0 mi Calm Calm - N/A   Clear
12:35 PM 67.3 °F 46.4 °F 47% 29.91 in 10.0 mi Calm Calm - N/A   Clear
12:55 PM 69.1 °F 47.7 °F 46% 29.91 in 10.0 mi SSW 4.6 mph - N/A   Clear
1:15 PM 69.6 °F 47.8 °F 46% 29.91 in 10.0 mi Calm Calm - N/A   Clear
1:35 PM 70.0 °F 47.1 °F 44% 29.90 in 10.0 mi SW 4.6 mph - N/A   Clear
1:50 PM 69.1 °F 47.1 °F 45% 29.90 in 10.0 mi Calm Calm - N/A   Clear
2:15 PM 70.5 °F 47.3 °F 44% 29.89 in 10.0 mi Calm Calm - N/A   Scattered Clouds
2:35 PM 72.0 °F 46.0 °F 40% 29.88 in 10.0 mi South 6.9 mph - N/A   Clear
2:55 PM 70.9 °F 46.8 °F 42% 29.88 in 10.0 mi Calm Calm - N/A   Clear
3:15 PM 72.5 °F 47.7 °F 41% 29.88 in 10.0 mi SSW 6.9 mph - N/A   Clear
3:35 PM 73.0 °F 48.6 °F 42% 29.87 in 10.0 mi Calm Calm - N/A   Clear
3:55 PM 72.3 °F 48.2 °F 42% 29.87 in 10.0 mi Calm Calm - N/A   Clear
4:15 PM 73.4 °F 48.2 °F 41% 29.87 in 10.0 mi South 6.9 mph - N/A   Clear
4:35 PM 73.4 °F 47.3 °F 39% 29.87 in 10.0 mi South 8.1 mph - N/A   Clear
4:55 PM 73.8 °F 48.2 °F 40% 29.87 in 10.0 mi South 5.8 mph - N/A   Clear
5:15 PM 73.2 °F 48.4 °F 41% 29.87 in 10.0 mi South 5.8 mph - N/A   Clear
5:35 PM 73.4 °F 49.1 °F 42% 29.87 in 10.0 mi South 8.1 mph - N/A   Clear
5:55 PM 72.5 °F 50.0 °F 45% 29.87 in 10.0 mi SSW 5.8 mph - N/A   Clear
6:15 PM 71.6 °F 50.5 °F 47% 29.87 in 10.0 mi South 3.5 mph - N/A   Mostly Cloudy
6:35 PM 70.2 °F 50.9 °F 50% 29.88 in 10.0 mi SSE 4.6 mph - N/A   Overcast
6:55 PM 67.5 °F 50.5 °F 55% 29.88 in 10.0 mi South 3.5 mph - N/A   Overcast
7:15 PM 64.2 °F 51.1 °F 62% 29.88 in 10.0 mi Calm Calm - N/A   Overcast
7:35 PM 62.2 °F 51.6 °F 68% 29.88 in 10.0 mi Calm Calm - N/A   Overcast
7:55 PM 61.3 °F 52.0 °F 71% 29.89 in 10.0 mi Calm Calm - N/A   Overcast
8:15 PM 61.3 °F 52.0 °F 71% 29.89 in 10.0 mi SSE 3.5 mph - N/A   Overcast
8:30 PM 61.2 °F 52.2 °F 72% 29.89 in 10.0 mi Calm Calm - N/A   Overcast
8:55 PM 61.9 °F 51.8 °F 69% 29.89 in 10.0 mi Calm Calm - N/A   Mostly Cloudy
9:15 PM 58.1 °F 50.9 °F 77% 29.90 in 10.0 mi Calm Calm - N/A   Scattered Clouds
9:35 PM 57.4 °F 50.0 °F 76% 29.89 in 10.0 mi Calm Calm - N/A   Scattered Clouds
9:55 PM 55.8 °F 50.2 °F 82% 29.89 in 10.0 mi Calm Calm - N/A   Clear
10:15 PM 54.3 °F 48.4 °F 80% 29.89 in 10.0 mi Calm Calm - N/A   Clear
10:35 PM 55.6 °F 50.2 °F 82% 29.89 in 10.0 mi Calm Calm - N/A   Clear
10:50 PM 54.3 °F 48.9 °F 82% 29.89 in 10.0 mi South 3.5 mph - N/A   Clear
11:15 PM 53.2 °F 48.7 °F 85% 29.90 in 10.0 mi South 3.5 mph - N/A   Clear
11:35 PM 53.1 °F 49.1 °F 86% 29.90 in 10.0 mi South 4.6 mph - N/A   Clear
11:55 PM 52.9 °F 48.9 °F 86% 29.90 in 10.0 mi SSE 4.6 mph - N/A   Clear